Flight Track Log - Related Links

Times and Time Zones

All times are in EST time to prevent confusion due to time zone crossing. See the CNS128 flight status page for this flight to view local times or setup timezone preferences in your user account.

Time Position Orientation Groundspeed Altitude Reporting Facility
EST Latitude Longitude Course Direction KTS MPH feet Rate Location/Type
Wed 08:32:22 PM 40.9000 -74.0500 21° North 146 168 2,400  Level New York TRACON
Wed 08:33:22 PM 40.9333 -74.0333 21° North 167 192 3,700 800 Climbing New York TRACON
Wed 08:34:22 PM 40.9500 -73.9667 72° East 215 247 4,000 150 Climbing New York TRACON
Wed 08:35:22 PM 40.9500 -73.8833 90° East 239 275 4,000  Level New York TRACON
Wed 08:36:22 PM 40.9333 -73.8000 105° East 244 281 4,000  Level New York TRACON
Wed 08:37:22 PM 40.9167 -73.7000 102° East 246 283 4,000  Level New York TRACON
Wed 08:38:22 PM 40.8667 -73.6500 143° Southeast 246 283 4,000  Level New York TRACON
Wed 08:39:22 PM 40.8167 -73.7000 217° Southwest 225 259 4,000  Level New York TRACON
Wed 08:40:16 PM 40.7833 -73.7500 229° Southwest 213 245 4,000  Level New York TRACON
Wed 08:41:22 PM 40.7833 -73.8500 270° West 210 242 4,000  Level New York TRACON
Wed 08:42:22 PM 40.7667 -73.9167 252° West 216 249 4,000  Level New York TRACON
Wed 08:43:16 PM 40.7500 -73.9833 252° West 226 260 4,000  Level New York TRACON
Wed 08:44:22 PM 40.7000 -74.0333 217° Southwest 225 259 4,000 -250 Level New York TRACON
Wed 08:45:16 PM 40.6500 -74.0000 153° Southeast 213 245 3,500 -556 Descending New York TRACON
Wed 08:46:10 PM 40.6500 -73.9667 90° East 188 216 3,000 -450 Descending New York TRACON
Wed 08:47:16 PM 40.7000 -73.9333 27° Northeast 175 201 2,600 -333 Descending New York TRACON
Wed 08:48:16 PM 40.7333 -73.8833 49° Northeast 180 207 2,300 -500 Descending New York TRACON
Wed 08:49:16 PM 40.7333 -73.8333 90° East 143 165 1,600 -750 Descending New York TRACON
Wed 08:50:16 PM 40.7500 -73.8333 360° North 101 116 800 -800 Descending New York TRACON
Wed 08:52:00 PM 40.7667 -73.8667 180° South  Level FlightAware Approximate

Login

Don't have an account? Register now (free) for customized features, flight alerts, and more!